Location: Quedlinburg
(51.7921°N, 11.1414°E)
Time: 08:11:25
(UTC+02:00)

SO-50 - Pass Details

Date: 10 March 2026
Orbit: 567 x 673 km, 64.6° (Epoch: 13 April)

Event Time Altitude Azimuth Distance (km) Brightness Sun altitude
Rises 22:50:59 0° 282° (WNW) 2,988 ? -38.1°
Reaches altitude 10° 22:53:52 10° 300° (WNW) 2,091 ? -38.4°
Enters shadow 22:55:08 15° 313° (NW) 1,786 ? -38.5°
